Weather History for KMCC - October, 2012

Change the Weather History Date:

Friday, October 5, 2012

  Actual Average (KMHR) Record (KMHR)
Temperature  
Mean Temperature 65 °F -  
Max Temperature 75 °F 78 °F 93 °F (2014)
Min Temperature 55 °F 50 °F 44 °F (2013)
Growing Degree Days 15 (Base 50)    
Moisture  
Dew Point 51 °F    
Average Humidity 64    
Maximum Humidity 82    
Minimum Humidity 38    
Precipitation  
Precipitation 0.00 in - - ()
Sea Level Pressure  
Sea Level Pressure 30.09 in    
Wind  
Wind Speed 11 mph ()    
Max Wind Speed 15 mph    
Max Gust Speed 18 mph    
Visibility 8.6 miles    
Events      
Averages and records for this station are not official NWS values.
T = Trace of Precipitation, MM = Missing Value Source: Averaged Metar Reports

Daily Weather History Graph

Daily Weather History Graph

Search for Another Location

Airport or City:

Trip Planner

Search our weather history database for the weather conditions in past years. The results will help you decide how hot, cold, wet, or windy it might be!

Date:

Astronomy

Oct. 05, 2012 Rise Set
Actual Time 7:05 AM PDT 6:41 PM PDT
Civil Twilight 6:39 AM PDT 7:07 PM PDT
Nautical Twilight 6:08 AM PDT 7:38 PM PDT
Astronomical Twilight 5:37 AM PDT 8:09 PM PDT
Moon 10:12 PM PDT (10/5) 12:14 PM PDT (10/5)
Length of Visible Light 12h 28m
Length of Day
11h 35m
Waning Gibbous, 73% of the Moon is Illuminated
Oct 5
Waning Gibbous
Oct 8
Last Quarter
Oct 15
New
Oct 21
First Quarter
Oct 29
Full

Hourly Weather History & Observations

Time (PDT) Temp. Dew Point Humidity Pressure Visibility Wind Dir Wind Speed Gust Speed Precip Events Conditions
12:10 AM 57.2 °F 50.0 °F 77% 30.08 in 7.0 mi SE 12.7 mph - N/A   Clear
12:30 AM 57.2 °F 50.0 °F 77% 30.08 in 8.0 mi SE 12.7 mph - N/A   Clear
12:50 AM 57.2 °F 50.0 °F 77% 30.09 in 8.0 mi SE 11.5 mph 16.1 mph N/A   Clear
1:10 AM 57.2 °F 50.0 °F 77% 30.09 in 7.0 mi SE 12.7 mph - N/A   Clear
1:30 AM 57.2 °F 50.0 °F 77% 30.10 in 8.0 mi SE 13.8 mph - N/A   Clear
1:50 AM 57.2 °F 50.0 °F 77% 30.09 in 7.0 mi SE 15.0 mph - N/A   Clear
2:10 AM 57.2 °F 50.0 °F 77% 30.10 in 7.0 mi SE 12.7 mph - N/A   Clear
2:30 AM 57.2 °F 50.0 °F 77% 30.10 in 7.0 mi SE 11.5 mph 17.3 mph N/A   Clear
2:50 AM 57.2 °F 50.0 °F 77% 30.10 in 7.0 mi SE 12.7 mph - N/A   Clear
3:10 AM 57.2 °F 50.0 °F 77% 30.10 in 7.0 mi SE 13.8 mph - N/A   Clear
3:30 AM 57.2 °F 50.0 °F 77% 30.10 in 8.0 mi SE 12.7 mph - N/A   Clear
3:50 AM 57.2 °F 50.0 °F 77% 30.10 in 8.0 mi SE 10.4 mph - N/A   Clear
4:10 AM 57.2 °F 50.0 °F 77% 30.10 in 8.0 mi SE 10.4 mph - N/A   Clear
4:30 AM 57.2 °F 50.0 °F 77% 30.10 in 8.0 mi SE 13.8 mph - N/A   Clear
4:50 AM 55.4 °F 50.0 °F 82% 30.10 in 7.0 mi SE 12.7 mph - N/A   Clear
5:10 AM 55.4 °F 50.0 °F 82% 30.10 in 8.0 mi SE 12.7 mph - N/A   Clear
5:30 AM 55.4 °F 50.0 °F 82% 30.11 in 7.0 mi SE 11.5 mph - N/A   Clear
5:50 AM 55.4 °F 50.0 °F 82% 30.11 in 8.0 mi SE 10.4 mph - N/A   Clear
6:10 AM 55.4 °F 50.0 °F 82% 30.12 in 7.0 mi SSE 10.4 mph - N/A   Clear
6:30 AM 57.2 °F 51.8 °F 82% 30.12 in 8.0 mi SE 11.5 mph - N/A   Clear
6:50 AM 55.4 °F 50.0 °F 82% 30.12 in 8.0 mi SE 11.5 mph - N/A   Clear
7:10 AM 57.2 °F 51.8 °F 82% 30.12 in 6.0 mi SE 11.5 mph - N/A   Haze
7:30 AM 57.2 °F 51.8 °F 82% 30.12 in 5.0 mi SSE 12.7 mph - N/A   Haze
7:50 AM 57.2 °F 51.8 °F 82% 30.13 in 6.0 mi SSE 12.7 mph - N/A   Haze
8:10 AM 57.2 °F 51.8 °F 82% 30.13 in 6.0 mi SE 10.4 mph - N/A   Haze
8:30 AM 57.2 °F 51.8 °F 82% 30.14 in 6.0 mi SSE 10.4 mph - N/A   Haze
8:50 AM 59.0 °F 53.6 °F 82% 30.14 in 7.0 mi SSE 11.5 mph - N/A   Clear
9:10 AM 59.0 °F 53.6 °F 82% 30.14 in 7.0 mi SSE 12.7 mph - N/A   Clear
9:30 AM 60.8 °F 53.6 °F 77% 30.14 in 7.0 mi SSE 11.5 mph - N/A   Clear
9:50 AM 62.6 °F 53.6 °F 72% 30.14 in 6.0 mi SSE 11.5 mph - N/A   Haze
10:10 AM 62.6 °F 51.8 °F 68% 30.14 in 7.0 mi SSE 11.5 mph - N/A   Clear
10:30 AM 64.4 °F 53.6 °F 68% 30.14 in 9.0 mi SSE 10.4 mph - N/A   Clear
10:50 AM 66.2 °F 53.6 °F 64% 30.13 in 9.0 mi SSE 10.4 mph 17.3 mph N/A   Clear
11:10 AM 68.0 °F 53.6 °F 60% 30.13 in 8.0 mi SSE 10.4 mph - N/A   Clear
11:30 AM 68.0 °F 51.8 °F 56% 30.13 in 9.0 mi SSE 12.7 mph 16.1 mph N/A   Clear
11:50 AM 71.6 °F 51.8 °F 50% 30.12 in 8.0 mi SSE 9.2 mph - N/A   Clear
12:10 PM - - N/A% 30.11 in 9.0 mi SE 11.5 mph - N/A   Clear
12:30 PM 71.6 °F 51.8 °F 50% 30.12 in 10.0 mi SSW 11.5 mph - N/A   Clear
12:50 PM 71.6 °F 51.8 °F 50% 30.11 in 10.0 mi SSE 6.9 mph - N/A   Clear
1:10 PM 71.6 °F 50.0 °F 46% 30.10 in 10.0 mi South 9.2 mph - N/A   Clear
1:30 PM 73.4 °F 50.0 °F 44% 30.09 in 10.0 mi South 9.2 mph - N/A   Clear
1:50 PM 75.2 °F 50.0 °F 41% 30.08 in 9.0 mi SSW 9.2 mph 18.4 mph N/A   Clear
2:10 PM 75.2 °F 50.0 °F 41% 30.08 in 10.0 mi South 12.7 mph - N/A   Clear
2:30 PM 75.2 °F 50.0 °F 41% 30.07 in 10.0 mi SSW 9.2 mph - N/A   Clear
2:50 PM 75.2 °F 50.0 °F 41% 30.07 in 10.0 mi South 9.2 mph 17.3 mph N/A   Clear
3:10 PM 75.2 °F 48.2 °F 38% 30.06 in 9.0 mi South 11.5 mph - N/A   Clear
3:30 PM 75.2 °F 50.0 °F 41% 30.06 in 10.0 mi South 11.5 mph - N/A   Clear
3:50 PM 75.2 °F 48.2 °F 38% 30.06 in 10.0 mi SSW 10.4 mph 18.4 mph N/A   Clear
4:10 PM 75.2 °F 48.2 °F 38% 30.05 in 10.0 mi South 11.5 mph - N/A   Clear
4:30 PM 73.4 °F 48.2 °F 41% 30.05 in 10.0 mi South 10.4 mph - N/A   Clear
4:50 PM 75.2 °F 50.0 °F 41% 30.05 in 10.0 mi SSW 12.7 mph - N/A   Clear
5:10 PM 73.4 °F 50.0 °F 44% 30.05 in 10.0 mi South 12.7 mph 16.1 mph N/A   Clear
5:30 PM 73.4 °F 50.0 °F 44% 30.05 in 10.0 mi SSW 11.5 mph - N/A   Clear
5:50 PM 73.4 °F 50.0 °F 44% 30.05 in 10.0 mi South 11.5 mph - N/A   Clear
6:10 PM 71.6 °F 50.0 °F 46% 30.05 in 10.0 mi SSW 12.7 mph - N/A   Clear
6:30 PM 71.6 °F 50.0 °F 46% 30.05 in 10.0 mi South 11.5 mph - N/A   Clear
6:50 PM 69.8 °F 50.0 °F 49% 30.05 in 10.0 mi South 9.2 mph - N/A   Clear
7:10 PM 68.0 °F 50.0 °F 52% 30.05 in 10.0 mi South 10.4 mph - N/A   Clear
7:30 PM 68.0 °F 50.0 °F 52% 30.05 in 10.0 mi South 9.2 mph - N/A   Clear
7:50 PM 68.0 °F 50.0 °F 52% 30.05 in 10.0 mi SSW 8.1 mph - N/A   Clear
8:10 PM 66.2 °F 50.0 °F 56% 30.05 in 10.0 mi South 6.9 mph - N/A   Clear
8:30 PM 66.2 °F 50.0 °F 56% 30.05 in 10.0 mi South 8.1 mph - N/A   Clear
8:50 PM 64.4 °F 50.0 °F 59% 30.05 in 10.0 mi South 8.1 mph - N/A   Clear
9:10 PM 64.4 °F 50.0 °F 59% 30.05 in 10.0 mi SSE 8.1 mph - N/A   Clear
9:30 PM 62.6 °F 50.0 °F 63% 30.05 in 10.0 mi South 8.1 mph - N/A   Clear
9:50 PM 62.6 °F 50.0 °F 63% 30.05 in 10.0 mi South 9.2 mph - N/A   Clear
10:10 PM 62.6 °F 50.0 °F 63% 30.06 in 10.0 mi South 9.2 mph - N/A   Clear
10:30 PM 62.6 °F 51.8 °F 68% 30.06 in 10.0 mi SSE 8.1 mph - N/A   Clear
10:50 PM 60.8 °F 51.8 °F 72% 30.06 in 10.0 mi SSE 9.2 mph - N/A   Clear
11:10 PM 60.8 °F 51.8 °F 72% 30.06 in 10.0 mi SE 6.9 mph - N/A   Clear
11:30 PM 59.0 °F 51.8 °F 77% 30.06 in 10.0 mi SE 6.9 mph - N/A   Clear
11:50 PM 59.0 °F 51.8 °F 77% 30.06 in 10.0 mi ESE 6.9 mph - N/A   Clear